Raleigh, NC

5:30 PM EDT on July 26, 2016 (GMT -0400)
Raleigh-Durham International

Weather History for KRDU - October, 2012

Change the Weather History Date:

Wednesday, October 10, 2012

  Actual Average Record
Temperature  
Mean Temperature 63 °F 63 °F  
Max Temperature 72 °F 74 °F 91 °F (1939)
Min Temperature 54 °F 52 °F 31 °F (2000)
Degree Days  
Heating Degree Days 2 4  
Month to date heating degree days 37 31  
Since 1 July heating degree days 47 52  
Cooling Degree Days 0 2  
Month to date cooling degree days 45 28  
Year to date cooling degree days 1868 1696  
Growing Degree Days 13 (Base 50)    
Moisture  
Dew Point 52 °F    
Average Humidity 71    
Maximum Humidity 93    
Minimum Humidity 49    
Precipitation  
Precipitation 0.00 in 0.10 in 1.30 in (1959)
Month to date precipitation 0.87 1.10  
Year to date precipitation 36.33 35.00  
Sea Level Pressure  
Sea Level Pressure 30.05 in    
Wind  
Wind Speed 4 mph (West)    
Max Wind Speed 14 mph    
Max Gust Speed 18 mph    
Visibility 9 miles    
Events      
T = Trace of Precipitation, MM = Missing Value Source: NWS Daily Summary

Daily Weather History Graph

Daily Weather History Graph

Search for Another Location

Airport or City:

Trip Planner

Search our weather history database for the weather conditions in past years. The results will help you decide how hot, cold, wet, or windy it might be!

Date:

Astronomy

Oct. 10, 2012 Rise Set
Actual Time 7:17 AM EDT 6:45 PM EDT
Civil Twilight 6:52 AM EDT 7:11 PM EDT
Nautical Twilight 6:22 AM EDT 7:40 PM EDT
Astronomical Twilight 5:52 AM EDT 8:10 PM EDT
Moon 2:01 AM EDT (10/10) 3:38 PM EDT (10/10)
Length of Visible Light 12h 18m
Length of Day
11h 27m
Waning Crescent, 27% of the Moon is Illuminated
Oct 10
Waning Crescent
Oct 15
New
Oct 21
First Quarter
Oct 29
Full
Nov 6
Last Quarter

Hourly Weather History & Observations

Time (EDT) Temp. Dew Point Humidity Pressure Visibility Wind Dir Wind Speed Gust Speed Precip Events Conditions
12:51 AM 55.9 °F 53.1 °F 90% 30.08 in 10.0 mi Calm Calm - N/A   Overcast
1:51 AM 55.9 °F 53.1 °F 90% 30.08 in 10.0 mi Calm Calm - N/A   Overcast
2:51 AM 55.9 °F 53.1 °F 90% 30.06 in 10.0 mi Calm Calm - N/A   Overcast
3:51 AM 55.0 °F 53.1 °F 93% 30.05 in 8.0 mi WSW 3.5 mph - N/A   Overcast
4:51 AM 55.0 °F 53.1 °F 93% 30.04 in 7.0 mi Calm Calm - N/A   Overcast
5:51 AM 55.0 °F 53.1 °F 93% 30.05 in 8.0 mi Calm Calm - N/A   Overcast
6:33 AM 55.4 °F 53.6 °F 94% 30.06 in 7.0 mi Calm Calm - N/A   Overcast
6:51 AM 55.0 °F 53.1 °F 93% 30.05 in 8.0 mi WSW 3.5 mph - N/A   Mostly Cloudy
7:51 AM 55.0 °F 53.1 °F 93% 30.07 in 8.0 mi WSW 4.6 mph - N/A   Mostly Cloudy
8:51 AM 55.9 °F 52.0 °F 87% 30.09 in 10.0 mi WSW 5.8 mph - N/A   Scattered Clouds
9:51 AM 60.8 °F 50.0 °F 68% 30.09 in 10.0 mi WSW 8.1 mph - N/A   Scattered Clouds
10:51 AM 63.0 °F 51.1 °F 65% 30.08 in 10.0 mi West 8.1 mph - N/A   Partly Cloudy
11:51 AM 66.0 °F 51.1 °F 59% 30.06 in 10.0 mi Variable 4.6 mph - N/A   Partly Cloudy
12:51 PM 68.0 °F 50.0 °F 52% 30.03 in 10.0 mi WNW 6.9 mph - N/A   Partly Cloudy
1:51 PM 71.1 °F 52.0 °F 51% 30.00 in 10.0 mi SW 8.1 mph - N/A   Partly Cloudy
2:51 PM 70.0 °F 50.0 °F 49% 29.99 in 10.0 mi WNW 8.1 mph - N/A   Partly Cloudy
3:51 PM 69.1 °F 51.1 °F 53% 29.99 in 10.0 mi West 10.4 mph - N/A   Mostly Cloudy
4:51 PM 70.0 °F 52.0 °F 53% 29.98 in 10.0 mi WSW 6.9 mph 18.4 mph N/A   Scattered Clouds
5:51 PM 68.0 °F 52.0 °F 56% 29.99 in 10.0 mi West 5.8 mph - N/A   Scattered Clouds
6:51 PM 64.0 °F 54.0 °F 70% 30.01 in 10.0 mi West 3.5 mph - N/A   Scattered Clouds
7:51 PM 60.1 °F 54.0 °F 80% 30.03 in 10.0 mi Calm Calm - N/A   Partly Cloudy
8:51 PM 55.9 °F 52.0 °F 87% 30.05 in 10.0 mi Calm Calm - N/A   Partly Cloudy
9:51 PM 57.0 °F 53.1 °F 87% 30.08 in 10.0 mi Calm Calm - N/A   Partly Cloudy
10:51 PM 57.9 °F 51.1 °F 78% 30.10 in 10.0 mi West 4.6 mph - N/A   Clear
11:51 PM 57.9 °F 48.9 °F 72% 30.11 in 10.0 mi Calm Calm - N/A   Clear